Theta_e
309 311 311 311 312 313 314 318 318 318 320 320 319 317 317 317 319 314 307 314 319 326 324 316 317 312 312 309 311 308 299 294 294 292 294 297 301 309 312 308 310 311 310 319 326
309 311 312 312 313 313 315 317 317 318 318 318 317 316 316 318 313 309 317 320 323 325 315 314 309 310 305 306 307 304 298 298 296 294 294 296 299 301 305 309 311 313 315 320 326
308 310 311 312 313 314 317 317 316 317 317 317 316 316 317 316 305 306 319 321 324 324 317 315 313 309 304 305 303 304 298 295 296 297 296 299 298 302 302 300 305 312 311 314 317
307 309 311 311 312 313 318 317 315 314 314 316 316 317 317 312 293 308 320 321 324 320 315 313 311 305 301 301 304 297 299 298 299 298 297 296 301 299 300 298 307 312 312 312 312
307 308 310 310 311 313 316 315 314 314 313 314 316 317 313 301 301 311 319 319 316 314 311 311 308 305 301 301 302 297 297 297 298 299 299 299 297 298 298 303 306 310 312 310 309
306 308 309 310 310 312 316 317 314 314 315 316 317 318 308 295 308 311 312 315 314 310 307 309 309 308 303 301 299 300 298 296 298 297 297 297 297 299 299 305 304 307 306 307 308
307 308 309 309 310 312 314 316 315 316 318 318 318 313 302 300 309 311 314 314 314 309 305 308 309 306 304 300 303 301 295 295 295 296 295 296 293 294 299 304 304 302 301 304 306
306 308 309 309 310 312 313 316 317 317 318 318 317 308 296 308 309 311 313 312 311 310 308 309 311 306 303 303 301 297 295 291 296 295 296 294 290 295 300 300 300 299 299 300 301
306 307 308 309 311 313 314 315 317 318 318 316 309 302 295 311 306 309 310 309 308 308 308 309 308 302 302 295 294 296 291 290 292 297 294 294 291 295 298 299 299 298 298 299 299
305 306 307 309 311 312 313 315 316 315 313 312 310 294 302 301 306 307 309 311 305 304 302 302 299 295 294 293 289 290 289 290 290 295 294 290 291 294 296 296 297 297 298 298 299
305 306 307 308 310 310 305 302 299 300 302 295 296 297 301 305 308 305 307 306 304 300 293 296 291 289 293 296 296 295 293 290 292 296 292 292 292 294 295 294 295 296 297 298 299
305 305 307 309 309 308 301 297 296 296 294 302 299 299 302 304 299 302 307 299 298 292 295 293 288 294 297 297 294 294 292 290 293 294 293 292 292 296 295 295 296 296 298 299 298
304 305 306 308 307 301 296 296 300 301 292 297 302 299 299 301 296 298 302 299 294 292 292 289 292 296 295 292 291 290 289 289 290 292 292 289 287 290 294 297 297 298 299 300 300
304 305 306 307 301 298 293 297 299 300 282 290 295 299 299 299 295 302 301 297 295 291 292 291 295 294 292 291 292 287 293 292 292 288 281 289 278 286 290 293 295 296 297 298 299
303 305 306 305 295 294 296 298 298 297 270 293 295 304 299 293 294 296 301 297 291 292 292 289 290 290 290 291 293 290 292 291 290 287 285 283 282 285 289 290 293 295 296 297 299
303 304 304 298 294 296 298 298 296 277 273 285 293 292 290 292 294 296 296 297 296 292 292 291 293 292 292 293 293 294 291 290 288 285 274 283 281 281 285 290 292 294 295 296 297
302 303 299 298 290 297 297 294 277 270 285 282 286 290 289 287 290 290 289 288 286 284 284 288 289 291 293 290 292 290 286 277 274 274 276 284 282 284 290 293 293 294 295 294 297
301 301 298 295 294 296 293 283 268 275 281 290 288 289 285 287 286 287 286 284 287 286 284 283 281 289 292 291 288 287 286 279 273 275 278 284 280 286 291 292 293 293 294 294 295
299 291 290 292 296 296 287 272 272 279 288 287 288 279 281 286 286 284 283 284 287 288 283 281 282 289 291 292 293 287 283 288 282 278 277 280 283 288 289 289 289 291 292 292 294
287 287 287 293 294 291 281 277 281 288 289 289 280 284 278 283 282 283 283 286 286 289 289 286 280 286 290 292 291 290 291 282 281 271 272 278 279 282 285 288 288 288 289 291 291
286 282 288 292 292 285 277 275 283 289 289 287 284 284 284 284 283 282 283 286 287 287 289 287 284 282 287 286 285 286 285 286 285 281 277 275 278 285 287 288 288 288 289 290 290
282 272 288 290 278 275 276 282 287 287 289 288 287 286 285 286 283 283 283 285 289 288 285 287 285 279 281 287 289 287 287 287 281 279 279 280 281 288 288 289 289 289 290 289 289
277 275 287 286 268 275 274 279 282 284 285 285 285 287 288 285 279 285 285 291 291 288 286 288 278 271 277 280 284 284 286 288 287 284 281 278 280 287 287 287 288 288 288 290 289
275 270 275 278 272 271 269 272 275 284 285 287 286 287 285 283 286 281 285 289 290 289 295 293 283 279 276 278 282 282 285 286 286 282 283 283 285 289 288 287 287 287 288 289 289
276 269 273 267 270 275 275 273 275 274 280 284 285 285 283 277 278 280 286 286 291 291 289 290 276 278 283 283 282 282 282 283 283 286 282 285 285 289 292 291 292 289 289 288 287
276 275 272 271 276 274 275 268 274 278 278 274 274 284 284 282 280 279 283 285 286 288 285 287 282 282 281 284 283 281 284 285 284 284 284 284 284 292 294 291 288 290 291 287 288
281 281 277 277 275 272 270 275 276 280 280 281 280 279 279 282 282 284 286 285 286 282 281 283 282 279 277 279 280 277 282 283 284 285 285 281 286 290 289 289 290 291 290 288 290
Wind_Speed
15 16 13 7 5 10 15 18 12 9 10 11 6 3 2 4 5 3 4 6 3 4 2 2 4 5 8 4 4 1 5 3 4 3 5 3 3 4 3 7 3 4 3 3 12
17 17 14 12 14 9 20 1 10 10 10 10 4 2 2 6 2 6 4 6 4 6 5 6 6 8 5 3 3 4 4 2 2 2 3 3 4 3 4 3 5 5 6 4 10
17 18 17 16 14 17 21 12 11 10 10 8 3 2 4 5 2 4 8 6 5 4 4 3 6 5 4 3 5 4 3 4 2 2 1 3 4 2 8 3 3 12 5 4 9
18 19 19 18 17 24 10 13 10 9 8 8 4 2 3 2 5 3 6 4 4 1 1 7 5 4 4 4 3 5 5 4 1 3 1 3 5 4 3 2 6 8 7 5 9
17 17 17 15 19 18 12 12 9 8 6 5 4 2 2 0 3 3 4 4 2 3 5 6 5 4 5 4 3 5 2 5 4 6 4 5 3 5 3 4 6 6 7 8 6
16 17 15 13 17 14 14 12 6 6 5 5 4 1 1 5 5 8 2 2 3 5 4 4 4 5 6 4 4 3 5 4 4 3 3 4 2 1 4 6 7 6 7 7 7
16 17 17 16 14 14 14 11 5 4 9 7 4 3 6 4 4 5 3 2 4 1 4 3 4 6 3 5 2 3 5 3 2 1 1 3 1 5 7 8 8 7 6 6 5
16 16 17 16 11 13 13 10 8 6 6 7 4 3 5 5 4 3 3 5 6 4 4 7 9 8 4 3 4 4 5 2 2 3 2 2 6 3 8 10 9 8 7 6 6
16 17 17 17 13 16 11 8 7 4 5 5 4 3 3 9 6 5 5 4 5 6 7 5 7 5 4 4 4 4 2 3 4 6 3 4 5 4 7 7 9 9 8 8 7
15 16 15 15 15 14 9 4 4 2 2 1 1 6 6 3 3 4 5 5 7 5 7 6 6 4 3 2 4 5 3 3 4 3 4 3 9 3 7 8 10 9 8 8 9
15 15 15 13 16 12 7 4 5 7 11 6 2 6 3 6 3 8 5 4 4 6 3 3 5 4 8 4 3 4 3 3 3 1 3 7 7 7 9 7 10 9 10 12 14
15 15 16 15 13 8 6 5 2 1 6 8 5 6 2 1 5 6 5 4 4 3 2 5 1 2 4 2 4 3 2 1 1 2 3 6 10 11 10 12 15 15 16 16 9
15 14 15 15 6 9 6 4 1 1 6 6 4 5 4 5 4 3 5 3 4 3 2 3 2 2 4 3 3 1 2 3 2 1 2 5 9 6 7 15 13 16 15 17 17
15 16 15 16 5 2 4 2 1 2 7 9 6 5 4 3 6 3 3 1 2 5 1 2 3 3 3 3 3 1 4 2 4 2 3 2 8 7 4 8 11 16 15 14 14
13 16 12 13 1 5 2 2 2 4 6 4 5 4 6 6 2 6 3 3 3 2 4 3 1 3 2 3 4 5 1 1 2 3 1 3 0 10 4 6 9 13 14 13 14
12 15 10 6 4 2 5 2 1 9 3 1 3 3 4 6 3 3 4 5 1 3 1 3 0 3 5 3 4 2 3 5 4 2 2 4 6 7 4 6 3 4 9 10 11
10 12 6 2 2 8 6 3 7 7 4 2 2 3 3 1 2 2 3 2 2 3 1 2 1 1 1 1 2 2 5 3 5 2 6 1 3 10 8 9 8 7 8 10 9
8 6 4 2 3 4 3 6 7 5 5 2 2 3 3 4 1 2 4 2 1 2 2 4 4 8 5 7 7 6 7 5 5 3 5 2 7 8 6 5 4 5 5 6 8
6 3 3 5 6 3 6 5 9 7 5 6 3 4 2 2 5 3 6 5 7 9 7 5 5 3 2 3 8 4 4 5 2 1 1 5 8 10 5 6 5 7 3 6 7
2 2 2 7 6 4 6 4 2 2 4 5 6 5 6 5 4 5 5 5 5 10 2 4 2 2 2 2 2 6 5 2 1 3 6 5 6 9 5 4 3 7 8 7 6
4 4 4 7 2 6 5 6 5 2 1 5 6 6 5 6 6 5 4 4 5 1 7 6 3 3 2 6 9 3 3 3 5 6 5 3 7 7 6 7 5 8 9 9 8
3 3 4 5 6 1 4 5 3 4 1 1 2 3 7 8 6 6 7 5 3 3 5 6 4 5 10 5 4 3 9 8 6 6 5 3 14 4 9 6 6 9 9 6 6
4 1 4 4 5 2 4 2 1 2 3 2 2 1 3 6 2 6 5 6 6 4 5 5 3 2 10 7 2 7 6 7 6 2 13 7 12 3 4 5 7 8 7 6 7
5 3 5 5 2 7 4 2 2 1 1 2 2 4 3 2 1 4 5 1 2 1 1 2 4 8 10 5 2 5 15 7 11 10 19 16 25 21 9 7 7 7 8 9 9
3 4 5 3 3 2 1 4 3 2 2 1 2 5 5 2 2 3 4 1 4 8 4 2 4 1 9 8 2 3 5 5 7 17 16 23 19 31 20 14 14 10 9 9 8
6 5 3 3 4 6 2 5 8 3 7 5 5 9 8 7 8 6 3 3 5 4 3 4 3 2 16 18 12 14 15 18 20 17 13 20 22 29 23 9 5 11 12 7 10
2 2 5 4 4 6 6 7 10 6 4 5 7 5 6 10 4 1 1 2 4 7 3 1 2 0 14 3 5 12 25 22 20 21 17 20 26 26 24 10 12 12 9 11 15
Wind_Direction
10 5 356 4 6 359 323 327 160 143 145 126 140 94 41 348 329 48 76 307 0 15 344 203 48 37 45 50 35 71 67 142 193 146 125 21 102 35 60 84 45 23 67 75 129
12 9 12 12 26 359 325 208 146 129 129 123 156 101 22 355 353 57 327 317 357 25 33 62 59 47 52 18 23 76 91 174 315 33 105 75 99 98 82 71 67 87 54 89 130
15 11 14 17 21 9 316 128 121 118 117 121 111 329 34 343 57 350 332 330 34 55 61 18 96 69 65 18 8 29 126 160 10 42 48 97 60 45 120 47 192 158 147 106 116
18 8 19 19 17 354 82 88 88 88 99 127 99 315 19 349 125 314 317 313 12 339 43 128 79 65 80 88 350 104 49 124 115 352 56 95 109 71 32 155 141 136 144 114 119
19 11 23 21 35 345 38 78 75 88 83 91 104 265 16 78 56 303 317 344 354 345 47 96 87 117 120 105 85 77 126 57 87 75 52 91 53 140 115 128 116 128 134 129 124
13 10 23 23 27 350 26 53 75 87 102 126 133 322 341 78 306 314 26 345 44 38 50 83 132 113 92 62 58 96 87 115 62 61 48 102 143 338 220 146 142 142 135 127 140
11 12 3 30 2 2 18 15 82 57 92 104 103 327 64 54 337 306 65 315 351 39 73 59 128 74 111 102 129 89 81 46 45 348 116 133 255 231 166 154 155 143 136 133 142
10 8 4 9 7 5 3 359 80 85 95 109 87 15 61 298 310 52 3 358 5 55 82 69 84 87 64 92 56 71 68 102 201 176 248 137 254 209 172 158 174 175 175 181 190
6 6 3 357 8 4 2 347 85 74 105 79 52 56 44 317 28 327 45 39 9 20 30 56 62 79 51 86 60 32 145 208 294 210 161 194 258 183 176 177 190 199 195 199 201
3 3 360 359 8 358 359 2 5 59 255 188 206 76 355 357 346 340 6 30 50 21 32 44 55 76 47 77 178 172 162 243 228 228 197 229 262 182 198 196 205 208 203 211 211
1 359 356 360 7 24 21 354 19 6 36 93 334 93 52 303 7 23 11 13 32 53 96 16 80 160 194 206 110 139 149 181 258 291 176 248 268 246 214 221 229 213 212 216 223
358 359 351 357 13 40 62 59 16 38 57 27 33 68 76 317 68 9 28 70 47 75 52 25 58 245 200 261 86 116 101 262 331 344 184 279 265 253 192 218 217 210 214 217 208
356 357 350 345 346 38 72 87 123 263 79 9 9 36 330 15 74 48 47 346 86 32 65 109 326 159 106 103 86 353 185 224 247 322 321 334 281 256 242 220 209 219 219 215 202
355 351 355 341 51 153 39 308 304 283 78 335 355 3 356 328 57 358 16 68 70 178 158 254 302 113 139 115 107 287 271 147 154 118 241 85 286 292 267 251 221 226 219 209 201
3 351 5 32 360 61 358 321 294 22 69 331 332 295 337 60 130 355 321 12 114 96 96 264 3 120 99 198 157 235 198 184 193 222 321 234 146 272 291 271 243 230 222 211 196
7 4 6 17 47 6 321 294 143 48 124 309 309 39 51 18 27 2 30 26 62 16 65 199 169 145 201 219 180 217 61 26 27 61 346 230 162 279 240 219 279 258 220 205 185
360 11 42 48 7 322 327 34 44 106 299 231 112 103 67 102 70 79 86 41 129 97 247 29 277 325 127 116 38 121 69 328 345 339 236 186 188 253 268 259 232 263 246 212 181
346 18 6 82 310 0 74 50 78 245 212 74 96 145 123 159 106 108 94 177 227 128 114 173 298 182 191 176 185 198 165 178 243 240 288 88 239 252 242 307 287 304 296 206 181
346 15 24 322 333 66 66 58 189 200 163 142 68 86 268 210 140 140 176 200 211 174 177 166 258 293 183 145 151 211 185 183 348 114 309 239 283 290 304 271 254 269 292 227 202
76 49 320 317 325 76 78 215 198 235 146 144 152 185 180 203 143 164 201 212 220 194 178 207 262 201 270 124 222 164 164 149 3 258 256 268 261 240 282 303 262 249 247 237 198
63 67 275 327 6 49 155 205 203 185 172 172 182 155 189 181 171 183 197 276 218 195 166 167 157 267 136 206 181 157 209 207 176 184 216 282 261 221 251 226 249 257 235 212 205
88 65 303 5 57 207 157 178 293 164 73 130 137 129 166 174 171 197 205 237 189 157 170 208 186 219 228 253 243 239 221 188 190 226 234 223 259 256 247 243 213 255 252 230 195
101 226 325 72 132 229 331 296 266 138 167 149 194 235 33 175 181 200 187 247 200 165 192 193 246 13 326 340 324 223 203 226 251 120 236 231 265 331 287 283 263 267 266 243 207
92 74 332 42 145 134 147 261 255 323 158 207 123 78 56 277 209 194 210 348 24 126 284 170 195 182 210 196 156 205 233 232 225 242 250 241 261 251 261 283 284 282 263 235 217
67 235 184 212 284 157 139 142 165 163 353 348 241 186 171 233 15 222 212 171 76 4 17 51 214 247 258 260 265 251 259 260 241 246 241 255 247 268 254 253 262 236 254 236 220
139 143 342 166 114 103 269 247 175 214 145 254 160 200 211 208 196 200 166 249 205 64 77 12 257 255 265 271 261 262 260 241 239 250 261 258 265 257 276 277 272 251 252 251 229
175 79 105 181 126 118 215 199 199 156 227 182 183 136 215 222 192 291 202 292 165 160 137 127 250 194 268 14 0 257 234 247 249 249 241 249 253 277 282 261 253 258 259 228 240